Total_Precipitation_Accumulation
0.00 0.00 0.01 0.02 0.05 0.09 0.11 0.13 0.18 0.19 0.21 0.27 0.37 0.59 0.80 0.91 1.09 1.23 1.22 1.35 1.74 2.14 2.44 2.72 2.86 3.09 3.41 3.72 3.98 4.25 4.63 4.74 4.50 4.45 4.39 4.28 3.97 3.82 3.49 3.09 2.72 2.65 2.63 2.79
0.00 0.01 0.01 0.01 0.03 0.05 0.07 0.10 0.16 0.19 0.22 0.29 0.34 0.55 0.76 0.79 0.99 1.13 1.23 1.42 1.58 1.78 2.26 2.54 2.55 2.79 3.03 3.55 4.04 4.37 4.36 4.23 3.97 4.08 4.37 4.60 4.57 4.08 3.48 3.12 2.98 2.65 2.56 2.64
0.01 0.03 0.01 0.01 0.02 0.03 0.08 0.11 0.16 0.19 0.22 0.34 0.44 0.87 0.99 0.88 0.97 1.06 1.15 1.32 1.46 1.64 1.83 2.14 2.17 2.27 2.48 2.98 3.49 3.63 3.48 3.40 3.25 3.32 3.65 3.87 4.09 3.83 3.48 3.19 2.95 2.66 2.56 2.50
0.01 0.02 0.01 0.02 0.03 0.03 0.06 0.06 0.08 0.14 0.26 0.45 0.51 1.00 1.22 1.21 1.28 1.13 1.15 1.21 1.47 1.63 1.67 1.83 1.88 1.93 1.98 2.12 2.37 2.56 2.74 2.82 2.82 2.86 3.06 3.25 3.40 3.35 3.20 3.10 2.87 2.60 2.35 2.28
0.02 0.02 0.02 0.04 0.04 0.03 0.05 0.05 0.07 0.14 0.25 0.45 0.49 0.71 1.19 1.44 1.47 1.22 1.15 1.16 1.30 1.32 1.41 1.54 1.62 1.62 1.68 1.83 2.04 2.26 2.56 2.71 2.78 2.75 2.83 3.03 3.31 3.31 3.08 2.86 2.80 2.62 2.38 2.13
0.03 0.04 0.05 0.05 0.05 0.04 0.05 0.07 0.13 0.20 0.32 0.71 0.62 0.69 1.11 1.33 1.18 1.14 1.05 0.99 1.06 1.05 1.19 1.39 1.50 1.55 1.57 1.66 1.89 2.12 2.35 2.35 2.45 2.52 2.53 2.57 2.73 2.87 2.73 2.54 2.48 2.30 2.11 1.95
0.12 0.11 0.09 0.06 0.06 0.06 0.08 0.14 0.50 0.91 1.10 1.05 0.64 0.74 1.20 1.09 0.93 0.95 0.96 0.98 1.04 1.02 1.01 1.19 1.37 1.38 1.51 1.62 1.74 1.88 2.03 2.12 2.13 2.17 2.10 2.06 2.14 2.28 2.26 2.18 2.19 2.09 1.88 1.72
0.22 0.24 0.17 0.09 0.08 0.09 0.13 0.23 0.65 0.94 0.94 0.93 0.77 1.15 1.36 0.96 0.88 0.85 0.76 0.78 0.81 0.76 0.74 0.84 1.01 1.13 1.27 1.42 1.51 1.63 1.75 1.87 1.95 2.00 2.01 1.96 1.93 2.01 2.10 2.17 2.04 1.97 1.73 1.56
0.15 0.16 0.11 0.08 0.07 0.11 0.22 0.29 0.32 0.53 0.64 0.97 1.16 1.38 1.21 0.92 0.88 0.81 0.83 0.80 0.79 0.73 0.70 0.71 0.81 0.92 0.96 1.07 1.18 1.30 1.44 1.59 1.75 1.75 1.87 1.85 1.74 1.82 2.00 2.10 2.02 1.93 1.87 1.75
0.08 0.09 0.11 0.08 0.10 0.15 0.18 0.22 0.29 0.44 0.68 0.99 1.19 1.49 1.63 1.42 1.20 1.02 1.07 0.95 0.84 0.73 0.66 0.67 0.67 0.69 0.67 0.78 1.03 1.15 1.30 1.48 1.52 1.49 1.47 1.42 1.48 1.66 1.81 1.80 1.73 1.86 1.92 1.93
0.07 0.08 0.11 0.14 0.14 0.16 0.19 0.23 0.30 0.38 0.46 0.76 1.19 1.36 1.13 1.20 1.17 1.16 1.03 0.95 0.90 0.79 0.64 0.62 0.68 0.70 0.69 0.73 0.95 0.99 1.07 1.26 1.32 1.29 1.21 1.21 1.29 1.40 1.48 1.50 1.52 1.68 1.76 1.82
0.09 0.10 0.15 0.20 0.18 0.16 0.18 0.21 0.31 0.49 0.52 0.63 0.94 1.16 0.82 0.90 0.91 0.82 0.77 0.77 0.68 0.65 0.58 0.57 0.67 0.78 0.88 0.95 0.94 0.88 0.89 0.95 1.09 1.13 1.12 1.16 1.19 1.18 1.17 1.19 1.30 1.40 1.47 1.51
0.13 0.16 0.28 0.49 0.50 0.30 0.25 0.21 0.25 0.32 0.42 0.49 0.77 1.06 0.88 0.86 0.92 0.85 0.81 0.81 0.71 0.65 0.61 0.65 0.74 0.76 0.78 0.93 1.04 0.91 0.89 0.95 1.07 1.11 1.17 1.24 1.24 1.15 1.07 1.10 1.17 1.18 1.16 1.19
0.12 0.13 0.24 0.49 0.45 0.34 0.31 0.27 0.29 0.34 0.45 0.47 0.53 0.80 0.94 0.94 0.92 0.89 0.85 0.76 0.75 0.71 0.61 0.65 0.76 0.89 0.88 0.86 0.96 0.91 0.89 0.96 1.08 1.26 1.45 1.46 1.36 1.24 1.14 1.08 1.09 1.10 1.06 1.13
0.13 0.12 0.13 0.18 0.23 0.31 0.33 0.27 0.27 0.28 0.32 0.47 0.44 0.58 0.83 0.92 0.83 0.86 0.90 0.68 0.61 0.70 0.68 0.62 0.71 0.88 0.95 0.95 0.93 0.90 0.97 1.03 1.15 1.38 1.51 1.50 1.45 1.36 1.28 1.20 1.16 1.12 1.14 1.14
0.20 0.18 0.19 0.20 0.26 0.32 0.33 0.28 0.23 0.21 0.21 0.28 0.35 0.55 0.66 0.62 0.69 0.73 0.70 0.68 0.69 0.79 0.76 0.69 0.68 0.73 0.87 0.94 0.99 1.03 1.13 1.19 1.24 1.24 1.27 1.37 1.44 1.43 1.37 1.22 1.16 1.22 1.23 1.21
0.34 0.34 0.30 0.30 0.30 0.37 0.41 0.33 0.27 0.24 0.20 0.27 0.45 0.67 0.66 0.63 0.70 0.65 0.58 0.59 0.74 0.80 0.71 0.66 0.68 0.72 0.80 0.83 0.91 1.13 1.13 1.08 1.11 1.17 1.24 1.33 1.38 1.36 1.30 1.17 1.18 1.21 1.21 1.24
0.32 0.40 0.40 0.41 0.52 0.66 0.44 0.26 0.26 0.28 0.25 0.23 0.36 0.49 0.57 0.54 0.57 0.59 0.53 0.52 0.55 0.62 0.61 0.62 0.69 0.76 0.78 0.73 0.72 0.80 0.91 0.98 1.01 1.08 1.18 1.26 1.30 1.35 1.41 1.37 1.28 1.30 1.32 1.29
0.30 0.44 0.49 0.55 0.70 0.58 0.37 0.33 0.35 0.39 0.42 0.35 0.39 0.46 0.56 0.58 0.59 0.68 0.58 0.53 0.51 0.49 0.53 0.65 0.77 0.75 0.74 0.73 0.73 0.81 0.93 1.02 1.11 1.11 1.17 1.20 1.29 1.44 1.50 1.42 1.39 1.43 1.40 1.31
0.35 0.44 0.60 0.66 0.84 0.78 0.58 0.43 0.38 0.48 0.85 0.60 0.49 0.50 0.59 0.64 0.75 0.84 0.67 0.60 0.58 0.58 0.63 0.61 0.62 0.61 0.66 0.77 0.86 0.94 1.08 1.23 1.28 1.24 1.25 1.34 1.39 1.50 1.60 1.63 1.62 1.57 1.54 1.47
0.76 0.70 0.65 0.76 0.91 0.79 0.57 0.46 0.53 0.91 1.13 0.77 0.65 0.61 0.66 0.77 0.77 0.73 0.67 0.59 0.57 0.61 0.64 0.64 0.68 0.71 0.74 0.78 0.95 1.15 1.23 1.28 1.31 1.31 1.32 1.44 1.52 1.64 1.82 1.98 1.91 1.86 1.81 1.79
1.00 1.03 0.97 1.01 1.17 1.16 0.70 0.59 0.87 1.09 0.88 0.82 0.81 0.79 0.77 0.69 0.63 0.62 0.65 0.61 0.57 0.60 0.71 0.77 0.86 0.90 0.82 0.82 0.96 1.13 1.23 1.27 1.39 1.41 1.45 1.51 1.63 1.68 1.84 2.20 2.19 2.21 2.21 2.07
1.11 1.22 1.32 1.31 1.31 1.05 0.94 0.99 1.02 1.07 0.95 0.89 0.76 0.69 0.67 0.67 0.66 0.70 0.78 0.78 0.68 0.62 0.70 0.77 0.90 0.97 0.98 1.04 1.15 1.32 1.36 1.42 1.50 1.61 1.71 1.76 1.82 1.95 2.04 2.19 2.24 2.28 2.26 2.14
1.08 1.00 1.32 1.47 1.36 1.23 1.09 1.00 1.05 1.21 1.10 0.91 0.77 0.72 0.73 0.72 0.66 0.63 0.67 0.73 0.72 0.69 0.76 0.84 0.90 1.10 1.22 1.26 1.34 1.45 1.55 1.65 1.77 1.91 2.00 2.04 2.06 2.05 2.08 2.23 2.24 2.25 2.25 2.16
1.01 1.01 1.32 1.58 1.53 1.51 1.31 1.02 0.96 0.99 0.92 0.80 0.80 0.78 0.80 0.83 0.77 0.67 0.65 0.67 0.74 0.84 0.91 0.98 1.08 1.21 1.26 1.35 1.45 1.56 1.74 1.93 2.01 2.03 2.03 2.03 2.06 2.17 2.24 2.21 2.20 2.24 2.30 2.27
1.18 1.16 1.43 1.73 1.53 1.50 1.40 1.13 0.98 0.86 0.77 0.75 0.89 0.93 0.86 0.86 0.87 0.81 0.77 0.79 0.84 0.93 1.05 1.15 1.24 1.33 1.36 1.49 1.66 1.77 1.94 2.13 2.29 2.25 2.16 2.16 2.20 2.27 2.28 2.24 2.17 2.21 2.15 2.08